Retour au catalogue

ION SCV-019

ActifScienceSSO
NORAD 68435·PAYLOAD·🇮🇹 Italy

Lancé Mar 30, 2026 depuis Vandenberg Space Force Base

Loading…

Prochains Passages (prochaines 24 heures)

TLE

FraisSource: Space-Track

Époque: Sep 14, 2026, 14:19 UTC

1 68435U 26067V   26257.59677996  .00003351  00000-0  15766-3 0  9997
2 68435  97.4649 215.0820 0011446  88.6262 271.6284 15.20201422 25526

Suivez ION SCV-019 en temps réel avec AllMySat

Download on the App Store